Погода Чапаево

Погода Чапаево : погода сейчас, прогноз погоды и архив. Всё, что Вы хотите узнать о погоде Чапаево!

Поиск расширенной информации на нашем сайте:

Другие новости

Новости СМИ2

Главная страница сайта

Новости сайта

02.10.2013

Напоминаем, что на нашем новом сайте вы можете получить высокодетализированные прогнозы погоды по пунктам России, СНГ и мира (включающие важные для авиации метеовеличины, такие как направление и скорость ветра, видимость, явления погоды, количество и форма облачности, нижняя и верхняя граница облачности), а также ознакомиться с разнообразными материалами по авиационной метеорологии и подборкой полезных ссылок на эту тему.

Сайт Метеоцентр.Азия посвящён разработке технологий оптимизации авиаметеорологического обслуживания, включая проектирование и перспективное создание нескольких автоматизированных авиаметеорологических систем:
- система выпуска высокодетальных прогностических карт явлений погоды для нижнего воздушного пространства по России и ближнему зарубежью;
- система верификации прогнозов TAF (выпускаемых синоптиками официальных АМСГ РФ и ближнего зарубежья) и AUTOTAF (выпускаемых сайтом Метеоцентр.Азия) - выявление ошибок, онлайн-сопоставление с фактической погодой METAR, автоматическое внесение коррективов в прогнозы при резком отклонении фактической погоды от прогноза, подсчёт оправдываемости прогнозов по элементам и в целом;
- система обработки, анализа и отображения авиаметеорологической информации для применения провайдерами метеорологической информации.


Погода Чапаево - сегодня

Время (UTC), дата Ветер
(°,м/с) 
Видим.   Явления Облачность Т
(°С)
Тd
(°С)
f(%) Тe
(°С)
Pmin
(гПа)
dP
(гПа)
Po
(мм)
O2
(г/м3)
Тmin Tmax R s Состояние
почвы
18 22.05.17 340 (С) н/о    8/0 средняя 
[Ac und]
+12.7 +10.4 86 +15  1003.6  1.8  751  287    +18.5       
21 22.05.17 340 (С) н/о    8/8 600 м 
[Sc]
+12.5 +10.4 87 +15  1003.9  0.3  752  288           
00 23.05.17 340 (С) н/о    8/8 600 м 
[Sc]
+11 +9.6 91 +12  1004.5  0.6  752  290           
03 23.05.17 050 (СВ) 20000 м  {ливн. осадки}  8/8 600 м 
[Sc]
+10.2 +7.9 86 +10  1006.7  2.2  754  291      0.8     
06 23.05.17 340 (С) 20000 м  {ливн. осадки}  6/6 600 м 
[Cu med, cong]
+13.4 +4.2 54 +13  1008.5  1.8  755  289  +10.2    0.8     
09 23.05.17 340 (С) 20000 м    6/6 600 м 
[Cu med, cong]
+16.5 +3.1 41 +16  1009.9  1.4  756  287           
12 23.05.17 340 (С) 20000 м    6/6 600 м 
[Cu med, cong]
+15.9 +1.6 38 +16  1011.3  1.4  757  288           
15 23.05.17 340 (С) 20000 м    4/4 600 м 
[Cu med, cong]
+15.7 -0.2 34 +16  1012.5  1.2  758  289    +16.7       
18 23.05.17 340 (С) н/о    ясно 
+8.9 +2.4 64 +9  1015  2.4  760  296    +16.7       
21 23.05.17 340 (С) н/о    ясно 
+9.6 +1 55 +11  1016.7  1.7  761  296           
00 24.05.17 320 (СЗ) н/о    ясно 
+2.6 +0.2 84 +3  1018  1.3  762  304           
03 24.05.17 тихо ()   20000 м    ясно 
+7.5 +3.7 77 +8  1019.6  1.6  763  299           
06 24.05.17 360 (С) 20000 м    ясно 
+16.4 +7.3 55 +17  1020.1  0.6  764  289  +2.5         
09 24.05.17 290 (З) 20000 м    3/3 600 м 
[Cu hum]
+18.2 -0.5 28 +19  1019.8  -0.3  764  288           
12 24.05.17 020 (С) 20000 м    1/0 верхняя 
[Ci fib]
+19.2 +0.6 29 +20  1019.2  -0.6  763  287           
15 24.05.17 тихо ()   20000 м    ясно 
+20.4 -0.4 25 +20  1018.6  -0.6  763  286    +20.8       
18 24.05.17 090 (В) н/о    ясно 
+14.2 +1.7 43 +15  1019.7  1.1  763  292    +20.8       
21 24.05.17 тихо ()   н/о    ясно 
+8.6 +1.5 61 +9  1020.7  0.9  764  298           
00 25.05.17 тихо ()   н/о    ясно 
+7.2 +2.3 71 +7  1020.6  -0.1  764  300           
03 25.05.17 200 (Ю) 20000 м    3/0 верхняя 
[Ci fib]
+12.6 +5.2 61 +13  1020.9  0.4  764  294           
06 25.05.17 290 (З) 20000 м    4/0 верхняя 
[Ci fib]
+20.9 +3.3 31 +21  1021.1  0.2  764  286  +7.2         
09 25.05.17 360 (С) 20000 м    4/0 верхняя 
[Ci fib]
+21.6 +3 29 +22  1020.2  -0.9  764  285           
12 25.05.17 050 (СВ) 20000 м    4/0 верхняя 
[Ci fib]
+22.5 +4.9 32 +23  1018.9  -1.3  763  283           
15 25.05.17 050 (СВ) 20000 м    4/0 верхняя 
[Ci fib]
+21.8 +5.5 35 +22  1018.1  -0.8  762  284    +22.6       
18 25.05.17 тихо ()   н/о    3/0 верхняя 
[Ci fib]
+14.8 +7.9 63 +15  1017.9  -0.2  762  290    +22.6       
Время (UTC), дата Ветер
(°,м/с) 
Видим.   Явления Облачность Т
(°С)
Тd
(°С)
f(%) Тe
(°С)
Pmin
(гПа)
dP
(гПа)
Po
(мм)
O2
(г/м3)
Тmin Tmax R s Состояние
почвы

Для получения пояснительной информации подведите курсор к названию столбца.

ПОГОДА Чапаево - архив

Всё, что Вы хотите узнать о погоде Чапаево - удобно и подробно!

Выберите нужную дату (начиная с 1 января 2015* года) и нажмите кнопку "Найти".
Будут отображены архивные сводки погоды по пункту Чапаево, начиная с указанной даты.


Отображать данные в формате CSV (для использования в таблицах Excel)


Внимание! Наш архив погоды предназначен исключительно для личного некоммерческого использования в познавательных целях. Если Вам необходимы официальные справки о состоянии погоды (для производственных, юридических, коммерческих и т.п. целей), обращайтесь в органы Росгидромета.

*Примечание: данная дата относится к архиву по метеостанциям СССР (Россия, СНГ, Балтия).
Архив по метеостанциям Зарубежной Европы и Азии (кроме Китая) хранится 10 дней, по другим регионам земного шара (Китай, Африка, Америка, Австралия, Океания) - 1 день.

Чапаево - район местоположения метеостанции


Название, широта, долгота, высота метеостанции:
Чапаево 50.2°ш. 51.2°д. 17 м над ур. моря [Казахстан]

Дополнительная информация

В oтличие oт бoльшинства пoгoдных сайтoв мы публикуем пoдрoбную метеoинфoрмацию в детальнoм прoфессиoнальнoм фoрмате.

Характеристики температуры и влажнoсти вoздуха измеряются на высoте 2 м в тени вдали oт зданий и деревьев.
Скoрoсть ветра измеряется на высoте 10 м (на урoвне рoста челoвека скoрoсть ветра ниже в 1.5-2 раза). Если метеoстанция нахoдится в гoрoде или в лесу, тo скoрoсть ветра занижена на 2-4 м/с пo сравнению с oткрытым местoм. Скoрoсть ветра над акватoриями крупных рек и oзёр, а также на вершинах хoлмoв на 2-5 м/с выше, чем в oбычных услoвиях.
Атмoсфернoе давление в разных тoчках местнoсти мoжет значительнo oтличаться oт давления на метеoстанции, в зависимoсти oт услoвий рельефа (при пoдъёме на 10 м давление пoнижается примернo на 1 мм рт.ст.).